| time (UTC) | temp F | wind direction | speed knots | gust knots | rain 1hr in | rain 24hr in | rain mn in | humidity % | barometer mb |
| 20260508085227 | 46 | 210 | 2.6 | 4.3 | 0.01 | 0.01 | 0.01 | 69 | 1013.5 |
| 20260508085128 | 46 | 193 | 1.7 | 3.5 | 0.01 | 0.01 | 0.01 | 69 | 1013.6 |
| 20260508083128 | 46 | 221 | 1.7 | 4.3 | 0.01 | 0.01 | 0.01 | 69 | 1013.6 |
| 20260508082129 | 47 | 180 | 0.0 | 0.0 | 0.01 | 0.01 | 0.01 | 69 | 1013.6 |
| 20260508081127 | 47 | 218 | 0.9 | 2.6 | 0.00 | 0.00 | 0.00 | 69 | 1013.7 |
| 20260508080144 | 47 | 189 | 0.9 | 1.7 | 0.00 | 0.00 | 0.00 | 69 | 1013.7 |
| 20260508075127 | 47 | 144 | 0.9 | 2.6 | 0.00 | 0.00 | 0.00 | 71 | 1013.8 |
| 20260508073126 | 48 | 189 | 2.6 | 7.0 | 0.00 | 0.00 | 0.00 | 65 | 1014.0 |
| 20260508072128 | 49 | 165 | 2.6 | 6.1 | 0.00 | 0.00 | 0.00 | 59 | 1014.1 |
| 20260508071128 | 49 | 206 | 1.7 | 3.5 | 0.00 | 0.00 | 0.00 | 58 | 1014.0 |
| 20260508070129 | 48 | 187 | 2.6 | 8.7 | 0.00 | 0.00 | 0.00 | 60 | 1013.8 |
| 20260508064129 | 47 | 202 | 2.6 | 3.5 | 0.00 | 0.00 | 0.00 | 62 | 1013.8 |
| 20260508063128 | 47 | 180 | 0.9 | 0.9 | 0.00 | 0.00 | 0.00 | 62 | 1013.8 |
| 20260508061128 | 47 | 180 | 0.9 | 1.7 | 0.00 | 0.00 | 0.00 | 60 | 1014.1 |
| 20260508060226 | 47 | 202 | 1.7 | 1.7 | 0.00 | 0.00 | 0.00 | 59 | 1014.1 |
| 20260508054228 | 48 | 200 | 0.0 | 1.7 | 0.00 | 0.00 | 0.00 | 58 | 1014.3 |
| 20260508053244 | 48 | 202 | 0.0 | 0.9 | 0.00 | 0.00 | 0.00 | 58 | 1014.4 |
| 20260508051327 | 48 | 197 | 0.9 | 1.7 | 0.00 | 0.00 | 0.00 | 56 | 1014.4 |
| 20260508050329 | 48 | 180 | 0.0 | 0.9 | 0.00 | 0.00 | 0.00 | 57 | 1014.6 |
| 20260508044428 | 47 | 196 | 1.7 | 2.6 | 0.00 | 0.00 | 0.00 | 57 | 1014.5 |
| 20260508042428 | 46 | 199 | 1.7 | 2.6 | 0.00 | 0.00 | 0.00 | 59 | 1014.5 |
| 20260508041527 | 45 | 185 | 1.7 | 3.5 | 0.00 | 0.00 | 0.00 | 61 | 1014.4 |
| 20260508040528 | 44 | 178 | 2.6 | 3.5 | 0.00 | 0.00 | 0.00 | 64 | 1014.5 |
| 20260508035614 | 43 | 180 | 1.7 | 2.6 | 0.00 | 0.00 | 0.00 | 66 | 1014.4 |
| 20260508033810 | 42 | 180 | 2.6 | 3.5 | 0.00 | 0.00 | 0.00 | 65 | 1014.4 |
| 20260508031910 | 43 | 180 | 1.7 | 1.7 | 0.00 | 0.00 | 0.00 | 64 | 1014.3 |
| 20260508030912 | 43 | 180 | 1.7 | 1.7 | 0.00 | 0.00 | 0.00 | 63 | 1014.3 |
| 20260508025911 | 43 | 180 | 1.7 | 2.6 | 0.00 | 0.00 | 0.00 | 63 | 1014.4 |
| 20260508023911 | 43 | 180 | 2.6 | 2.6 | 0.00 | 0.00 | 0.00 | 63 | 1014.4 |
| 20260508022913 | 44 | 180 | 2.6 | 2.6 | 0.00 | 0.00 | 0.00 | 62 | 1014.3 |
| 20260508021912 | 44 | 180 | 2.6 | 2.6 | 0.00 | 0.00 | 0.00 | 60 | 1014.4 |
| 20260508015911 | 45 | 180 | 2.6 | 2.6 | 0.00 | 0.00 | 0.00 | 58 | 1014.3 |
| 20260508014913 | 45 | 180 | 1.7 | 1.7 | 0.00 | 0.00 | 0.00 | 57 | 1014.2 |
| 20260508013910 | 46 | 157 | 1.7 | 2.6 | 0.00 | 0.00 | 0.00 | 56 | 1014.2 |
| 20260508012911 | 46 | 157 | 0.9 | 1.7 | 0.00 | 0.00 | 0.00 | 53 | 1014.2 |
| 20260508011911 | 47 | 157 | 1.7 | 1.7 | 0.00 | 0.00 | 0.00 | 53 | 1014.2 |
| 20260508010913 | 47 | 157 | 0.9 | 0.9 | 0.00 | 0.00 | 0.00 | 53 | 1014.2 |
| 20260508005926 | 48 | 157 | 1.7 | 1.7 | 0.00 | 0.00 | 0.00 | 48 | 1014.2 |
| 20260508004913 | 49 | 360 | 0.0 | 0.9 | 0.00 | 0.00 | 0.00 | 45 | 1014.2 |
| 20260508004011 | 50 | 360 | 0.0 | 0.0 | 0.00 | 0.00 | 0.00 | 42 | 1014.3 |
| 20260508002112 | 52 | 360 | 0.0 | 0.9 | 0.00 | 0.00 | 0.00 | 40 | 1013.9 |
| 20260508001112 | 52 | 318 | 2.6 | 3.5 | 0.00 | 0.00 | 0.00 | 39 | 1013.8 |
| 20260507233211 | 54 | 315 | 1.7 | 5.2 | 0.00 | 0.00 | 0.00 | 38 | 1013.6 |
| 20260507233111 | 54 | 315 | 0.9 | 2.6 | 0.00 | 0.00 | 0.00 | 38 | 1013.6 |
| 20260507232112 | 54 | 264 | 1.7 | 5.2 | 0.00 | 0.00 | 0.00 | 38 | 1013.7 |
| 20260507232011 | 53 | 263 | 0.9 | 3.5 | 0.00 | 0.00 | 0.00 | 37 | 1013.6 |
| 20260507231110 | 54 | 316 | 1.7 | 3.5 | 0.00 | 0.00 | 0.00 | 38 | 1013.7 |
| 20260507230111 | 54 | 316 | 5.2 | 7.8 | 0.00 | 0.00 | 0.00 | 37 | 1013.6 |
| 20260507225112 | 54 | 1 | 0.9 | 3.5 | 0.00 | 0.00 | 0.00 | 37 | 1013.6 |
| 20260507224111 | 55 | 339 | 2.6 | 5.2 | 0.00 | 0.00 | 0.00 | 37 | 1013.6 |
| 20260507224012 | 55 | 290 | 1.7 | 3.5 | 0.00 | 0.00 | 0.00 | 37 | 1013.6 |
| 20260507222110 | 53 | 303 | 3.5 | 7.8 | 0.00 | 0.00 | 0.00 | 44 | 1013.7 |
| 20260507220111 | 54 | 332 | 3.5 | 7.8 | 0.00 | 0.00 | 0.00 | 46 | 1013.7 |
| 20260507215210 | 54 | 308 | 2.6 | 4.3 | 0.00 | 0.00 | 0.00 | 47 | 1013.5 |
| 20260507214211 | 56 | 6 | 4.3 | 7.0 | 0.00 | 0.00 | 0.00 | 42 | 1013.4 |
| 20260507213212 | 56 | 360 | 4.3 | 7.8 | 0.00 | 0.00 | 0.00 | 37 | 1013.0 |
| 20260507212210 | 56 | 320 | 6.1 | 8.7 | 0.00 | 0.00 | 0.00 | 39 | 1012.9 |
| 20260507211211 | 55 | 342 | 4.3 | 7.8 | 0.00 | 0.00 | 0.00 | 41 | 1012.9 |
| 20260507210226 | 55 | 348 | 2.6 | 4.3 | 0.00 | 0.00 | 0.00 | 40 | 1013.0 |
| 20260507205211 | 55 | 304 | 3.5 | 7.0 | 0.00 | 0.00 | 0.00 | 39 | 1012.9 |
| 20260507204211 | 55 | 204 | 0.9 | 3.5 | 0.00 | 0.00 | 0.00 | 40 | 1012.7 |
| 20260507203210 | 55 | 298 | 2.6 | 5.2 | 0.00 | 0.00 | 0.00 | 39 | 1012.6 |
| 20260507200311 | 55 | 287 | 1.7 | 3.5 | 0.00 | 0.00 | 0.00 | 38 | 1012.7 |
| 20260507194312 | 55 | 316 | 3.5 | 7.0 | 0.00 | 0.00 | 0.00 | 40 | 1013.0 |
| 20260507192311 | 56 | 299 | 1.7 | 3.5 | 0.00 | 0.00 | 0.00 | 39 | 1013.0 |
| 20260507191310 | 56 | 297 | 5.2 | 12.2 | 0.00 | 0.00 | 0.00 | 39 | 1013.0 |
| 20260507190312 | 56 | 242 | 1.7 | 7.0 | 0.00 | 0.00 | 0.00 | 37 | 1013.1 |
| 20260507184410 | 57 | 324 | 4.3 | 6.1 | 0.00 | 0.00 | 0.00 | 38 | 1013.1 |
| 20260507183411 | 56 | 300 | 1.7 | 4.3 | 0.00 | 0.00 | 0.00 | 37 | 1013.1 |
| 20260507182412 | 57 | 288 | 1.7 | 4.3 | 0.00 | 0.00 | 0.00 | 36 | 1013.0 |
| 20260507180411 | 58 | 182 | 1.7 | 4.3 | 0.00 | 0.00 | 0.00 | 37 | 1013.1 |
| 20260507175425 | 58 | 205 | 1.7 | 5.2 | 0.00 | 0.00 | 0.00 | 36 | 1013.2 |
| 20260507173413 | 58 | 325 | 5.2 | 7.0 | 0.00 | 0.00 | 0.00 | 37 | 1013.1 |
| 20260507173311 | 57 | 296 | 3.5 | 6.1 | 0.00 | 0.00 | 0.00 | 37 | 1013.1 |
| 20260507172209 | 57 | 176 | 2.6 | 7.0 | 0.00 | 0.00 | 0.00 | 36 | 1013.3 |
| 20260507165330 | 56 | 308 | 1.7 | 4.3 | 0.00 | 0.00 | 0.00 | 40 | 1013.6 |
| 20260507163330 | 57 | 315 | 5.2 | 7.0 | 0.00 | 0.00 | 0.00 | 38 | 1013.5 |
| 20260507162332 | 57 | 170 | 1.7 | 5.2 | 0.00 | 0.00 | 0.00 | 38 | 1013.4 |
| 20260507161429 | 58 | 222 | 1.7 | 7.0 | 0.00 | 0.00 | 0.00 | 37 | 1013.6 |
| 20260507160432 | 57 | 198 | 2.6 | 4.3 | 0.00 | 0.00 | 0.00 | 39 | 1013.4 |
| 20260507155431 | 56 | 248 | 0.9 | 2.6 | 0.00 | 0.00 | 0.00 | 39 | 1013.6 |
| 20260507154431 | 55 | 349 | 0.0 | 0.9 | 0.00 | 0.00 | 0.00 | 42 | 1013.8 |
| 20260507154331 | 55 | 343 | 3.5 | 5.2 | 0.00 | 0.00 | 0.00 | 42 | 1013.8 |
| 20260507153429 | 56 | 301 | 2.6 | 4.3 | 0.00 | 0.00 | 0.00 | 41 | 1013.8 |
| 20260507152447 | 56 | 358 | 0.9 | 1.7 | 0.00 | 0.00 | 0.00 | 41 | 1013.7 |
| 20260507151531 | 56 | 302 | 3.5 | 7.0 | 0.00 | 0.00 | 0.00 | 41 | 1013.7 |
| 20260507144532 | 54 | 312 | 4.3 | 10.4 | 0.00 | 0.00 | 0.00 | 49 | 1013.8 |
| 20260507143531 | 54 | 327 | 0.9 | 1.7 | 0.00 | 0.00 | 0.00 | 51 | 1014.1 |
| 20260507141630 | 53 | 324 | 0.0 | 1.7 | 0.00 | 0.00 | 0.00 | 54 | 1014.2 |
| 20260507135631 | 51 | 254 | 0.9 | 2.6 | 0.00 | 0.00 | 0.00 | 58 | 1014.3 |
| 20260507134631 | 50 | 164 | 0.9 | 2.6 | 0.00 | 0.00 | 0.00 | 60 | 1014.4 |
| 20260507133729 | 50 | 258 | 0.0 | 0.9 | 0.00 | 0.00 | 0.00 | 61 | 1014.5 |
| 20260507132730 | 49 | 197 | 0.9 | 2.6 | 0.00 | 0.00 | 0.00 | 63 | 1014.6 |
| 20260507131748 | 49 | 180 | 1.7 | 4.3 | 0.00 | 0.00 | 0.00 | 64 | 1014.5 |
| 20260507130731 | 49 | 267 | 1.7 | 3.5 | 0.00 | 0.00 | 0.00 | 63 | 1014.4 |
| 20260507124730 | 48 | 156 | 1.7 | 3.5 | 0.00 | 0.00 | 0.00 | 66 | 1014.3 |
| 20260507123731 | 47 | 235 | 2.6 | 6.1 | 0.00 | 0.00 | 0.00 | 67 | 1014.3 |
| 20260507120929 | 45 | 202 | 0.9 | 3.5 | 0.00 | 0.00 | 0.00 | 71 | 1014.2 |
| 20260507115931 | 44 | 157 | 0.0 | 0.0 | 0.00 | 0.00 | 0.00 | 72 | 1014.3 |
| 20260507113931 | 42 | 180 | 3.5 | 4.3 | 0.00 | 0.00 | 0.00 | 75 | 1014.2 |
| 20260507112932 | 41 | 172 | 1.7 | 3.5 | 0.00 | 0.00 | 0.00 | 76 | 1014.1 |
| 20260507112847 | 41 | 175 | 2.6 | 3.5 | 0.00 | 0.00 | 0.00 | 76 | 1014.1 |
| 20260507111830 | 41 | 172 | 2.6 | 2.6 | 0.00 | 0.00 | 0.00 | 77 | 1014.0 |
| 20260507110846 | 41 | 175 | 2.6 | 3.5 | 0.00 | 0.00 | 0.00 | 76 | 1014.0 |
| 20260507105930 | 40 | 180 | 2.6 | 3.5 | 0.00 | 0.00 | 0.00 | 77 | 1013.8 |
| 20260507104932 | 40 | 182 | 2.6 | 4.3 | 0.00 | 0.00 | 0.00 | 77 | 1013.8 |
| 20260507104831 | 40 | 180 | 2.6 | 3.5 | 0.00 | 0.00 | 0.00 | 77 | 1013.7 |
| 20260507103929 | 40 | 180 | 2.6 | 3.5 | 0.00 | 0.00 | 0.00 | 78 | 1013.7 |
| 20260507102930 | 40 | 180 | 2.6 | 2.6 | 0.00 | 0.00 | 0.00 | 78 | 1013.6 |
| 20260507101929 | 40 | 180 | 2.6 | 3.5 | 0.00 | 0.01 | 0.00 | 78 | 1013.6 |
| 20260507101028 | 40 | 180 | 2.6 | 2.6 | 0.00 | 0.01 | 0.00 | 78 | 1013.7 |
| 20260507100037 | 40 | 180 | 2.6 | 3.5 | 0.00 | 0.01 | 0.00 | 78 | 1013.5 |
| 20260507094147 | 40 | 180 | 1.7 | 1.7 | 0.00 | 0.03 | 0.00 | 79 | 1013.6 |
| 20260507092328 | 40 | 180 | 2.6 | 3.5 | 0.00 | 0.04 | 0.00 | 80 | 1013.6 |
| 20260507090331 | 39 | 183 | 2.6 | 2.6 | 0.00 | 0.05 | 0.00 | 80 | 1013.7 |